Regional Weather Roundup
Issued by NWS

Home | Current Version | Previous Version | Text Only | Print | Product List | Glossary Off
Versions: 1 2 3 4 5 6 7 8 9 10 11 12 13 14 15 16 17 18 19 20 21 22 23 24 25 26 27 28 29 30 31 32 33 34 35 36 37 38 39 40 41 42 43 44 45 46 47 48 49 50

000
ASUS45 KBOU 271007
RWRCO

WEATHER ROUNDUP FOR COLORADO
NATIONAL WEATHER SERVICE DENVER/BOULDER CO
400 AM MDT SAT AUG 27 2016

NOTE: "FAIR" INDICATES FEW OR NO CLOUDS BELOW 12000 FEET WITH NO
SIGNIFICANT WEATHER AND/OR OBSTRUCTIONS TO VISIBILITY.

COZ001>005-013-030-031-271100-
...NORTHWEST COLORADO...

CITY           SKY/WX    TMP DP  RH WIND       PRES   REMARKS
CRAIG          FAIR      47  42  83 SE5       30.19R
HAYDEN         FAIR      46  37  71 E9        30.20S
MEEKER         FAIR      46  43  89 CALM      30.21F
MOUNT WERNER   NOT AVBL
STEAMBOAT SPGS FAIR      42  38  87 CALM      30.23R
WALDEN         FAIR      46  34  61 SE10      30.28S
$$

COZ006>008-011-271100-
...WEST CENTRAL VALLEYS...

CITY           SKY/WX    TMP DP  RH WIND       PRES   REMARKS
GRAND JUNCTION FAIR      55  48  77 E3        30.15S
MONTROSE       FAIR      53  44  71 E5        30.23R
EAGLE          FAIR      48  46  93 E5        30.28S
RIFLE          FAIR      51  50  96 S3        30.21S
DELTA          NOT AVBL
NUCLA          FAIR     N/A N/A N/A NE9       30.23F
$$

COZ017>023-064>068-271100-
...SOUTHWEST COLORADO...

CITY           SKY/WX    TMP DP  RH WIND       PRES   REMARKS
DURANGO        MOCLDY    47  44  90 CALM      30.24R
CORTEZ         FAIR      54  50  86 CALM      30.20R
PAGOSA SPRINGS FAIR      44  43  97 CALM      30.30S
TELLURIDE      CLOUDY    45  43  93 SE5       30.40R
WOLF CREEK PAS FAIR      36  36 100 SW9       30.54F
$$

COZ009-010-012-014-032>034-037-058>063-271100-
...CENTRAL COLORADO...

CITY           SKY/WX    TMP DP  RH WIND       PRES   REMARKS
ASPEN          FAIR      45  41  86 S6        30.29F
BUENA VISTA    FAIR      48  35  62 W3        30.31R
COPPER MTN     FAIR      41  32  70 SW14G21   30.49F
BERTHOUD PASS  FAIR      32  19  59 NW17G24   30.49F HAZE    WCI  21
COTTONWOOD PAS FAIR      48  32  53 W5        30.40S
GUNNISON       FAIR      43  37  81 SW3       30.35S
KREMMLING      FAIR      41  36  81 E12       30.29S
LEADVILLE      FAIR      36  32  85 N7        30.40S
MONARCH PASS   FAIR      36  32  87 W22       30.60S
SALIDA         FAIR      51  36  57 W7        30.36S
SUNLIGHT       FAIR      41  37  87 NE8       30.46S
WILKERSON PASS FAIR      37  30  75 W7        30.48R
$$

COZ069>075-271100-
...SAN LUIS VALLEY/SANGRE DE CRISTO MOUNTAINS...

CITY           SKY/WX    TMP DP  RH WIND       PRES   REMARKS
ALAMOSA        FAIR      38  36  92 S6        30.29S
LA VETA PASS   FAIR      43  36  75 S8        30.40S
SAGUACHE       MOCLDY    52  39  62 NW12      30.31S
$$

COZ035-036-038>040-271100-
...NORTHERN COLORADO FRONT RANGE...

CITY           SKY/WX    TMP DP  RH WIND       PRES   REMARKS
DENVER INTL AP FAIR      53  48  83 SW6       30.10F
DMNS CITY PARK   N/A     54  50  88 SE7       30.11S
AURORA         PTCLDY    51  46  84 S7        30.13R
FRONT RANGE AP NOT AVBL
ERIE MUNI ARPT FAIR      49  46  88 CALM      30.10F
BOULDER MUN AP FAIR      54  46  76 CALM      30.11S
CENTENNIAL     FAIR      51  42  71 CALM      30.13S
BROOMFIELD     FAIR      54  43  66 CALM      30.13S
FORT COLLINS   FAIR      50  46  87 NW6       30.11R
LONGMONT       FAIR      50  46  85 CALM      30.12S
$$

COZ041-046-047-076>085-087-088-271100-
...PIKES PEAK/PALMER DIVIDE AND SOUTHERN FOOTHILLS...

CITY           SKY/WX    TMP DP  RH WIND       PRES   REMARKS
COLO. SPRINGS  MOCLDY    53  44  71 NE3       30.17F
A. F. ACADEMY  FAIR      46  43  89 N8        30.18F
SCHRIEVER AFB  NOT AVBL
ELLICOTT       NOT AVBL
FALCON         FAIR      50  44  78 W6        30.21S
FORT CARSON    FAIR      53  46  77 NW6       30.14F
LIMON          FAIR      43  43 100 N3        30.12F
MONUMENT HILL  FAIR      50  45  81 S9        30.21F
TRINIDAD       FAIR      54  44  69 W10       30.14S
$$

COZ042>045-048>051-090-091-271100-
...NORTHEAST COLORADO...

CITY           SKY/WX    TMP DP  RH WIND       PRES   REMARKS
GREELEY ARPT   FAIR      48  45  87 CALM      30.10S
AKRON          FAIR      51  48  89 CALM      30.08S
BURLINGTON     FOG       53  52  96 S5        30.07F VSB 1/4
WRAY           FAIR     N/A N/A N/A CALM      30.06F
STERLING       FAIR      48  48 100 CALM      30.05F
HOLYOKE        FOG       54  52  94 CALM      30.08R VSB 1/4
FORT MORGAN    FAIR      49  47  94 CALM      30.08S
$$

COZ086-089-092>099-271100-
...SOUTHEAST COLORADO...

CITY           SKY/WX    TMP DP  RH WIND       PRES   REMARKS
PUEBLO         FAIR      57  48  72 W3        30.08F
LA JUNTA       FAIR      56  52  86 NW9       30.05S
LAMAR          FAIR      52  51  97 CALM      30.01R FOG
SPRINGFIELD      N/A     56  54  93 SW3       30.06F
$$



USA.gov is the U.S. government's official web portal to all federal, state and local government web resources and services.